[Iaude] MPEC V102: 2023 VA3 [a=1.22,e=0.20,i=24.0,H=21.7,PHA]
    mpec at marsden.cfa.harvard.edu 
    mpec at marsden.cfa.harvard.edu
       
    Tue Nov  7 19:58:11 EST 2023
    
    
  
M.P.E.C. 2023-V102                             Issued 2023 November 8, 00:56 UT
     The Minor Planet Electronic Circulars contain information on unusual
         minor planets, routine data on comets and natural satellites,
         and occasional editorial announcements.  They are published
    on behalf of Division F of the International Astronomical Union by the
          Minor Planet Center, Smithsonian Astrophysical Observatory,
                          Cambridge, MA 02138, U.S.A.
			  
             Prepared using the Tamkin Foundation Computer Network
                              MPC at CFA.HARVARD.EDU
            URL https://www.minorplanetcenter.net/    ISSN 1523-6714
                                    2023 VA3                                    
Observations:
     K23V03A* C2023 11 04.52929303 32 40.924+17 02 07.54         21.37wXEV102F51
     K23V03A  C2023 11 04.53959103 32 38.617+17 02 26.46         21.13wXEV102F51
     K23V03A  C2023 11 04.54987703 32 36.343+17 02 45.38         21.19wXEV102F51
     K23V03A  C2023 11 04.62943703 32 18.773+17 05 10.39         21.55GVEV102F51
     K23V03A  C2023 11 04.63025103 32 18.644+17 05 12.15         21.10GVEV102F51
     K23V03A KC2023 11 05.25170003 30 06.09 +17 24 15.9          20.6 GXEV102858
     K23V03A KC2023 11 05.25780703 30 04.38 +17 24 25.9          21.3 GVEV102H21
     K23V03A KC2023 11 05.26215703 30 03.78 +17 24 35.0          20.7 GXEV102858
     K23V03A KC2023 11 05.26353003 30 03.12 +17 24 36.3          21.0 GVEV102H21
     K23V03A KC2023 11 05.26639203 30 02.49 +17 24 41.7          21.2 GVEV102H21
     K23V03A KC2023 11 05.26982703 30 01.71 +17 24 48.1          21.0 GVEV102H21
     K23V03A KC2023 11 05.27242403 30 01.50 +17 24 53.6          21.3 GXEV102858
     K23V03A KC2023 11 06.23863903 26 31.170+17 54 22.50         21.52GVEV102I52
     K23V03A KC2023 11 06.23981203 26 30.900+17 54 24.60         20.95GVEV102I52
     K23V03A KC2023 11 06.24098803 26 30.560+17 54 27.30               VEV102I52
     K23V03A KC2023 11 07.99263203 20 02.87 +18 46 58.4          20.4 GVEV102L01
     K23V03A KC2023 11 07.99653403 20 01.94 +18 47 05.6          20.5 GVEV102L01
     K23V03A IC2023 11 08.00029703 20 01.09 +18 47 12.4          20.6 GVEV102L01
Observer details:
858 Tebbutt Observatory, Edgewood.  Observer F. B. Zoltowski.  0.51-m f/8.1
    Schmidt-Cassegrain + CCD.
F51 Pan-STARRS 1, Haleakala.  Observers J. Bulger, T. Lowe, P. Minguez, A.
    Schultz, I. Smith.  Measurers K. Chambers, T. de Boer, J. Fairlamb, H.
    Gao, M. Huber, C.-C. Lin, E. Magnier, Y. Ramanjooloo, R. Wainscoat, R.
    Weryk.  1.8-m Ritchey-Chretien + CCD.
H21 Astronomical Research Observatory, Westfield.  Observer R. Holmes.
    Measurers T. Linder, R. Holmes, L. Horn.  0.81-m f/4.0 astrograph + CCD.
I52 Steward Observatory, Mt. Lemmon Station.  Observer R. A. Kowalski.
    Measurers E. C. Beshore, D. Fay, J. B. Fazekas, D. C. Fuls, A. R. Gibbs,
    A. D. Grauer, H. Groeller, J. K. Hogan, R. A. Kowalski, S. M. Larson, G.
    J. Leonard, D. Rankin, R. L. Seaman, F. C. Shelly, K. W. Wierzchos.  1.0-m
    prime focus + CCD.
L01 Visnjan Observatory, Tican.  Observer K. Korlevic.  1.0-m f/2.9 reflector
    + CCD.
Orbital elements:
2023 VA3                                            PHA, Earth MOID = 0.0107 AU
Epoch 2023 Sept. 13.0 TT = JDT 2460200.5                MPC                     
M  94.98569              (2000.0)            P               Q                  
n   0.72758215     Peri.  210.93540     -0.24134485     +0.92376983             
a   1.2242817      Node    47.00798     -0.78635342     -0.00661698             
e   0.2034905      Incl.   23.98437     -0.56868354     -0.38289100             
P   1.35           H   21.77          G   0.15           U   9                  
Residuals in seconds of arc
231104 F51  0.1+  0.2-    231105 H21  0.2-  0.0     231106 I52  0.4+  0.2-
231104 F51  0.2-  0.1-    231105 858  0.1-  0.0     231106 I52  0.3+  0.3-
231104 F51  0.1-  0.1-    231105 H21  0.1+  0.1-    231106 I52  0.8-  0.3+
231104 F51  0.4-  0.2-    231105 H21  0.2+  0.0     231107 L01  0.3+  0.2-
231104 F51  0.3+  0.1+    231105 H21  0.0   0.1+    231107 L01  0.2-  0.0
231105 858  0.5-  0.2+    231105 858  0.1+  0.4-    231108 L01  0.1-  0.2+
Ephemeris:
2023 VA3                 a,e,i = 1.22, 0.20, 24                  q = 0.9752
Date    TT    R. A. (2000) Decl.     Delta      r    Elong.  Phase     V
2023 10 09    04 37 43.6 +04 34 01   0.5177  1.3622   124.7    37.1    22.5
...
2023 10 24    04 09 10.0 +11 06 10   0.4536  1.3951   146.3    23.3    21.9
...
2023 11 01    03 44 57.4 +15 12 17   0.4362  1.4105   160.0    13.9    21.5
...
2023 11 07    03 23 43.2 +18 17 27   0.4337  1.4210   170.7     6.4    21.2
2023 11 08    03 20 01.5 +18 47 19   0.4343  1.4227   172.5     5.2    21.2
2023 11 09    03 16 18.4 +19 16 45   0.4352  1.4243   174.1     4.1    21.1
...
2023 11 15    02 53 57.5 +22 01 25   0.4464  1.4336   173.1     4.7    21.2
...
2023 11 23    02 26 19.3 +25 01 23   0.4769  1.4445   159.7    13.7    21.7
...
2023 12 08    01 49 45.3 +28 44 53   0.5717  1.4603   137.8    26.9    22.6
A. U. Tomatic                (C) Copyright 2023 MPC           M.P.E.C. 2023-V102
    
    
More information about the Iaude
mailing list